Regional Weather Roundup
Issued by NWS Mt. Holly, NJ

Home | Current Version | Previous Version | Text Only | Print | Product List | Glossary On
Versions: 1 2 3 4 5 6 7 8 9 10 11 12 13 14 15 16 17 18 19 20 21 22 23 24 25 26 27 28 29 30 31 32 33 34 35 36 37 38 39 40 41 42 43 44 45 46 47 48 49 50
000
ASUS41 KPHI 050111
RWRPHI

REGIONAL WEATHER ROUNDUP
NATIONAL WEATHER SERVICE MOUNT HOLLY NJ
900 PM EDT MON MAY 04 2015

NOTE:  "FAIR" INDICATES FEW OR NO CLOUDS BELOW 12,000 FEET WITH NO
SIGNIFICANT WEATHER AND/OR OBSTRUCTIONS TO VISIBILITY.

 * = STATION DOES NOT REPORT PRECIPITATION (E.G. RAIN, SNOW, ETC.)
        OR FOG.

NJZ015>026-050200-
SOUTHERN NEW JERSEY

CITY           SKY/WX    TMP DP  RH WIND       PRES   REMARKS
POMONA         CLEAR     70  44  39 S14       30.20R
RIO GRANDE*    CLEAR     66  45  45 S12         N/A
MILLVILLE      CLEAR     67  48  50 S3        30.20R
WRIGHTSTOWN    CLEAR     72  41  32 S10       30.15R
MOUNT HOLLY    CLEAR     71  43  36 VRB3      30.17R
TRENTON        CLEAR     74  41  30 S12       30.16R

$$
NJZ001>014-050200-
NORTHERN NEW JERSEY

CITY           SKY/WX    TMP DP  RH WIND       PRES   REMARKS
SUSSEX         CLEAR     73  43  33 SW3       30.13R
ANDOVER*         N/A     74  44  34 S6        30.14R
MORRISTOWN     PTCLDY    75  41  29 SW8       30.14R
NEWARK         PTCLDY    78  42  27 S14       30.14R
TETERBORO      CLEAR     77  40  26 SW9       30.12R
CALDWELL       CLEAR     77  41  27 VRB5      30.13R
SOMERVILLE     CLEAR     74  42  31 S3        30.12R
ALLAIRE*       CLEAR     73  39  29 S10       30.18R
TOMS RIVER*    CLEAR     72  39  30 S10       30.19S

$$
PAZ043-044-047-054-055-060>062-066>071-050200-
EASTERN PENNSYLVANIA

CITY           SKY/WX    TMP DP  RH WIND       PRES   REMARKS
PHILADELPHIA   PTCLDY    76  43  30 S8        30.17R
NORTH PHILA    CLEAR     78  39  24 SW10      30.18R
BLUE BELL      CLEAR     73  45  35 S5        30.16R
DOYLESTOWN     CLEAR     73  41  31 S8        30.16R
QUAKERTOWN*    CLEAR     73  46  38 SW6       30.17R
POTTSTOWN      CLEAR     74  45  35 S3        30.18R
LANCASTER      PTCLDY    72  47  40 S13       30.15R
COATESVILLE    CLEAR     72  46  40 S3        30.19R
READING        PTCLDY    74  46  36 S12       30.14R
ALLENTOWN      PTCLDY    75  45  34 SW12      30.14R
MOUNT POCONO   PTCLDY    70  42  36 SW10      30.17R
HAZLETON       MOCLDY    73  43  33 S8        30.19R
WILKES BARRE   PTCLDY    77  40  26 SW6       30.11R

$$
DEZALL-MDZ008-012-015-019-020-050200-
DELAWARE AND EASTERN MARYLAND

CITY           SKY/WX    TMP DP  RH WIND       PRES   REMARKS
WILMINGTON     CLEAR     73  48  41 S12       30.18R
DOVER          PTCLDY    73  48  40 SW3       30.17R
GEORGETOWN     CLEAR     70  43  37 S15       30.23R
EASTON         CLEAR     73  50  43 S13G18    30.24R
PATUXENT       PTCLDY    69  50  50 S8        30.20R
OCEAN CITY     CLEAR     64  52  64 SW12G21   30.26R
WALLOPS ISLAND CLEAR     62  52  69 S14       30.26R
CAMBRIDGE      CLEAR     72  48  43 S10G18    30.21R
SALISBURY      CLEAR     68  44  42 S10       30.23R

$$
PAZ001-021-NYZ056-072-MDZ011-DCZ001-050200-
OTHER NEARBY LOCATIONS

CITY           SKY/WX    TMP DP  RH WIND       PRES   REMARKS
HARRISBURG     PTCLDY    77  47  34 VRB5      30.12R
STATE COLLEGE  CLEAR     72  45  37 W9        30.15R
WILLIAMSPORT   PTCLDY    74  44  34 CALM      30.09R
BINGHAMTON     CLOUDY    71  44  37 NW5       30.12R
NEW YORK CITY  CLEAR     74  44  34 S3        30.17R
BALTIMORE      PTCLDY    72  50  45 SE5       30.17R
WASHINGTON DC  PTCLDY    74  55  51 S9        30.17R

$$


USA.gov is the U.S. government's official web portal to all federal, state and local government web resources and services.